Powrót do katalogu

JASON 3

AktywnyNaukaLEO
NORAD 41240·PAYLOAD·🇺🇸 United States

Wystrzelony Jan 17, 2016 z Vandenberg Space Force Base

Loading…

Następne Przeloty (najbliższe 24 godziny)

TLE

ŚwieżeSource: CelesTrak SupGP

Epoka: Sep 14, 2026, 00:00 UTC

1 41240C 16002A   26257.00000000 -.00000024  00000+0 -94568-4 0  2572
2 41240  66.0415 299.1143 0008610 268.2425  34.0422 12.87627795    18

Śledź JASON 3 w czasie rzeczywistym z AllMySat

Download on the App Store